Hourly Data Report for November 08, 2019

CARBERRY CS
MANITOBA
Current Station Operator: ECCC - MSC

49°54'20.900" N
99°21'26.800" W
383.50 m
5010547
71170
WZE

Download Data

Hourly Data (November 2019)
Hourly Data Report for November 8, 2019
TIME
LST
Temp Definition
°C
Dew Point Definition
°C
Rel Hum Definition
%
Precip. Amount Definition
mm

Wind Dir Definition
10's deg

Wind Spd Definition
km/h
Visibility Definition
km
Stn Press Definition
kPa
Hmdx Definition


Wind Chill Definition


Weather Definition


00:00 -9.4 -11.8 83 0.0 16 7   97.76   -13 LegendNANA
01:00 -9.0 -11.4 83 0.0 16 7   97.63   -13 LegendNANA
02:00 -8.0 -10.3 83 0.0 17 13   97.53   -14 LegendNANA
03:00 -7.5 -9.8 84 0.0 18 13   97.46   -13 LegendNANA
04:00 -6.9 -9.4 82 0.0 17 11   97.35   -12 LegendNANA
05:00 -6.7 -9.1 83 0.0 17 12   97.24   -12 LegendNANA
06:00 -6.4 -9.0 82 0.0 14 11   97.11   -11 LegendNANA
07:00 -6.4 -9.0 82 0.0 14 11   96.99   -11 LegendNANA
08:00 -6.0 -8.5 82 0.0 14 12   96.91   -11 LegendNANA
09:00 -5.0 -7.9 80 0.0 16 13   96.82   -10 LegendNANA
10:00 -3.6 -7.2 76 0.0 18 13   96.74   -8 LegendNANA
11:00 -2.4 -7.3 69 0.0 19 12   96.66   -7 LegendNANA
12:00 -1.0 -6.8 64 0.0 22 8   96.57   -4 LegendNANA
13:00 -1.4 -6.4 69 0.0 22 5   96.49   -3 LegendNANA
14:00 -1.0 -5.7 71 0.0 20 6   96.44   -3 LegendNANA
15:00 -0.9 -5.4 71 0.0 20 7   96.40   -3 LegendNANA
16:00 -0.9 -4.5 77 0.0 13 3   LegendMM   -2 LegendNANA
17:00 -1.1 -4.2 79 0.0 29 6   96.44   -3 LegendNANA
18:00 -1.2 -3.5 85 0.0 24 5   96.43   -3 LegendNANA
19:00 -1.4 -2.6 91 0.2 26 8   96.38   -4 LegendNANA
20:00 -1.8 -3.5 88 0.0 30 13   96.41   -6 LegendNANA
21:00 -2.7 -4.5 87 0.0 30 15   96.45   -8 LegendNANA
22:00 -3.9 -5.1 92 0.0 31 10   96.50   -8 LegendNANA
23:00 -4.4 -5.7 91 0.0 31 10   96.55   -9 LegendNANA

Notes on Data Quality.

Legend

  • E = Estimated
  • M = Missing
  • NA = Not Available*
  • [empty] = Indicates an unobserved value
Date modified: